FW2480 Trujillo Alto PR US current weather conditions

sailwx.info

Wind from 118 at 3 knots gusting 9

Air temperature 23.9° C
Dewpoint 18.7° C

Last reported at 2019-Dec-11 03:02 UTC.
Time now 2019-Dec-11 03:57 UTC

Location: N 18°21' W 065°60'.
View on Google Maps.

See reports from other nearby stations

  
Tides and Currents Weather Stations Pressure Air Temp Water Temp Dewpoint Dewpoint Depression Visibility Wind Speed Wind Dir Waves Ship Positions
date/time (UTC)wind fromknots sea level pressurealtimeterstation pressurevisibilityair tempwater tempwave heightnotes
2019-Dec-11 03:32 059 2 gusting 7 23.9
2019-Dec-11 03:16 118 23.9
2019-Dec-11 03:02 118 3 gusting 9 23.9
2019-Dec-11 02:46 104 0 gusting 5 23.9
2019-Dec-11 02:32 094 0 gusting 3 23.9
2019-Dec-11 02:17 095 0 gusting 6 23.3
2019-Dec-11 02:01 106 23.3
2019-Dec-11 01:47 106 23.9
2019-Dec-11 01:31 097 1 gusting 9 23.9
2019-Dec-11 01:17 040 2 gusting 7 24.4
2019-Dec-11 01:00 108 24.4
2019-Dec-11 00:47 078 24.4
2019-Dec-11 00:31 071 24.4
2019-Dec-11 00:15 089 0 gusting 6 24.4
2019-Dec-11 00:00 069 0 gusting 4 24.4
2019-Dec-10 23:47 109 24.4
2019-Dec-10 23:30 103 23.9
2019-Dec-10 23:16 090 24.4
2019-Dec-10 23:01 099 24.4
2019-Dec-10 22:46 088 0 gusting 6 24.4
2019-Dec-10 22:15 130 0 gusting 11 23.9
2019-Dec-10 22:01 060 0 gusting 7 24.4
2019-Dec-10 21:46 063 3 gusting 7 25.0
2019-Dec-10 21:30 096 0 gusting 7 25.6
2019-Dec-10 21:16 127 2 gusting 13 26.7
2019-Dec-10 21:00 072 3 gusting 9 26.7
2019-Dec-10 20:45 208 4 gusting 10 27.2
2019-Dec-10 20:30 015 2 gusting 8 27.2
2019-Dec-10 20:16 116 2 gusting 10 26.7
2019-Dec-10 20:01 155 5 gusting 12 26.7
2019-Dec-10 19:46 050 6 gusting 13 27.8
2019-Dec-10 19:30 088 4 gusting 14 27.8
2019-Dec-10 19:15 099 6 gusting 17 28.3
2019-Dec-10 19:00 075 3 gusting 14 28.3
2019-Dec-10 18:45 079 6 gusting 14 28.9
2019-Dec-10 18:30 071 5 gusting 13 28.3
2019-Dec-10 18:15 081 3 gusting 12 28.9
2019-Dec-10 17:45 101 4 gusting 12 28.3
2019-Dec-10 17:30 040 3 gusting 12 28.3
2019-Dec-10 17:15 121 4 gusting 16 27.8
2019-Dec-10 17:00 080 4 gusting 10 27.8
2019-Dec-10 16:45 063 3 gusting 7 26.7
2019-Dec-10 16:30 121 3 gusting 9 26.1
2019-Dec-10 16:18 068 1 gusting 7 25.0
2019-Dec-10 16:04 067 2 gusting 12 23.9
2019-Dec-10 15:46 115 1 gusting 18 23.9
2019-Dec-10 15:32 101 6 gusting 16 27.8
2019-Dec-10 15:17 065 4 gusting 15 27.2
2019-Dec-10 15:03 066 6 gusting 16 27.2
2019-Dec-10 14:47 132 3 gusting 10 27.2
2019-Dec-10 14:32 061 4 gusting 9 27.2
2019-Dec-10 14:17 110 1 gusting 6 26.1
2019-Dec-10 14:01 091 2 gusting 9 25.6
2019-Dec-10 13:47 097 2 gusting 10 25.6
2019-Dec-10 13:32 113 5 gusting 13 25.0
2019-Dec-10 13:18 066 2 gusting 5 25.6
2019-Dec-10 13:01 067 1 gusting 6 26.1
2019-Dec-10 12:47 110 26.1
2019-Dec-10 12:31 125 23.9
2019-Dec-10 12:16 161 22.8
2019-Dec-10 12:01 161 22.8
2019-Dec-10 11:46 148 22.2
2019-Dec-10 11:31 151 21.7
2019-Dec-10 11:15 161 21.7
2019-Dec-10 11:00 161 21.1
2019-Dec-10 10:45 160 21.1
2019-Dec-10 10:31 160 0 gusting 3 21.1
2019-Dec-10 10:16 151 21.7
2019-Dec-10 10:00 178 21.7
2019-Dec-10 09:45 166 21.7
2019-Dec-10 09:30 171 21.7
2019-Dec-10 09:15 154 21.7
2019-Dec-10 09:00 153 21.7
2019-Dec-10 08:45 143 0 gusting 2 21.7
2019-Dec-10 08:30 166 21.7
2019-Dec-10 08:16 173 0 gusting 2 21.7
2019-Dec-10 08:00 168 0 gusting 3 22.2
2019-Dec-10 07:45 162 0 gusting 2 21.7
2019-Dec-10 07:30 162 0 gusting 5 21.7
2019-Dec-10 07:15 163 1 gusting 3 21.7
2019-Dec-10 07:00 132 0 gusting 3 22.2
2019-Dec-10 06:45 188 22.2
2019-Dec-10 06:30 169 22.2
2019-Dec-10 06:15 134 22.2
2019-Dec-10 06:00 127 0 gusting 4 22.2
2019-Dec-10 05:47 116 22.2
2019-Dec-10 05:45 179 22.2
2019-Dec-10 05:17 163 0 gusting 2 22.2
2019-Dec-10 05:02 182 0 gusting 1 22.2
2019-Dec-10 04:46 143 22.2
2019-Dec-10 04:31 143 22.2
2019-Dec-10 04:16 142 0 gusting 3 22.2
2019-Dec-10 04:01 139 22.2
2019-Dec-10 03:48 151 0 gusting 2 22.8
2019-Dec-10 03:32 140 22.8
2019-Dec-10 03:16 155 22.8
2019-Dec-10 03:03 189 22.8
2019-Dec-10 02:46 181 23.3
2019-Dec-10 02:32 182 23.3
2019-Dec-10 02:16 069 23.3
2019-Dec-10 02:01 044 1 gusting 4 23.3
2019-Dec-10 01:46 166 23.3
2019-Dec-10 01:31 165 23.3
2019-Dec-10 01:16 055 23.9
2019-Dec-10 01:01 160 0 gusting 4 23.9
2019-Dec-10 00:46 137 23.9
2019-Dec-10 00:31 104 0 gusting 2 23.9
2019-Dec-10 00:16 005 0 gusting 3 23.9
2019-Dec-10 00:01 026 23.9
2019-Dec-09 23:46 119 23.9
2019-Dec-09 23:31 088 0 gusting 9 23.9
2019-Dec-09 23:15 111 0 gusting 6 23.9
2019-Dec-09 23:01 085 23.9
2019-Dec-09 22:45 113 2 gusting 12 24.4
2019-Dec-09 22:31 040 25.0
2019-Dec-09 22:16 106 0 gusting 3 25.6
2019-Dec-09 22:01 117 25.0
2019-Dec-09 21:46 059 25.0
2019-Dec-09 21:30 086 0 gusting 3 25.0
2019-Dec-09 21:15 078 25.0
2019-Dec-09 21:01 078 25.0
2019-Dec-09 20:46 134 1 gusting 6 25.0
2019-Dec-09 20:30 092 2 gusting 6 25.0
2019-Dec-09 20:01 074 4 gusting 9 25.0
2019-Dec-09 19:46 090 6 gusting 18 25.0
2019-Dec-09 19:30 087 6 gusting 12 26.7
2019-Dec-09 19:15 067 7 gusting 13 27.8
2019-Dec-09 19:01 063 5 gusting 11 27.8
2019-Dec-09 18:45 069 2 gusting 9 27.8
2019-Dec-09 18:31 082 3 gusting 11 27.2
2019-Dec-09 18:16 150 6 gusting 16 27.2
2019-Dec-09 18:00 308 9 gusting 19 28.3
2019-Dec-09 17:45 063 6 gusting 17 28.3
2019-Dec-09 17:31 091 6 gusting 14 28.9
2019-Dec-09 17:15 074 3 gusting 13 28.9
2019-Dec-09 17:00 115 4 gusting 11 28.9
2019-Dec-09 16:46 072 6 gusting 16 28.3
2019-Dec-09 16:30 091 6 gusting 13 28.9
2019-Dec-09 16:15 236 6 gusting 15 28.3
2019-Dec-09 16:00 144 4 gusting 15 28.3
2019-Dec-09 15:45 056 4 gusting 15 28.3
2019-Dec-09 15:30 081 4 gusting 12 28.3
2019-Dec-09 15:15 153 5 gusting 11 28.9
2019-Dec-09 15:00 097 6 gusting 13 28.3
2019-Dec-09 14:45 200 1 gusting 14 28.3
2019-Dec-09 14:30 086 4 gusting 14 27.8
2019-Dec-09 14:15 115 6 gusting 13 27.2
2019-Dec-09 14:01 077 5 gusting 13 27.2
2019-Dec-09 13:46 035 3 gusting 10 26.7
2019-Dec-09 13:31 079 1 gusting 7 26.1
2019-Dec-09 13:16 074 25.6
2019-Dec-09 13:01 132 23.9
2019-Dec-09 12:46 216 22.8
2019-Dec-09 12:31 215 22.8
2019-Dec-09 12:16 215 22.2
2019-Dec-09 12:01 215 22.2
2019-Dec-09 11:46 204 22.2
2019-Dec-09 11:31 194 21.7
2019-Dec-09 11:16 276 21.7
2019-Dec-09 11:01 276 21.7
2019-Dec-09 10:46 276 21.7
2019-Dec-09 10:31 274 0 gusting 2 22.2
2019-Dec-09 10:16 200 22.2
2019-Dec-09 10:01 175 22.2
2019-Dec-09 09:46 175 22.2
2019-Dec-09 09:30 175 22.2
2019-Dec-09 09:15 175 22.2
2019-Dec-09 09:01 175 22.8
2019-Dec-09 08:46 175 22.8
2019-Dec-09 08:30 175 22.8
2019-Dec-09 08:16 173 22.8
2019-Dec-09 08:00 214 22.8
2019-Dec-09 07:45 214 22.8
2019-Dec-09 07:31 108 22.8
2019-Dec-09 07:16 037 1 gusting 6 22.8
2019-Dec-09 07:00 083 22.8
2019-Dec-09 06:45 022 0 gusting 3 22.8
2019-Dec-09 06:31 080 1 gusting 6 22.8
2019-Dec-09 06:15 092 1 gusting 6 22.8
2019-Dec-09 06:00 130 22.8
2019-Dec-09 05:45 130 23.3
2019-Dec-09 05:30 130 23.3
2019-Dec-09 05:15 130 23.3
2019-Dec-09 05:00 128 23.3
2019-Dec-09 04:45 075 2 gusting 6 22.8
2019-Dec-09 04:30 124 22.8
2019-Dec-09 04:01 124 22.8
2019-Dec-09 03:46 124 22.8
2019-Dec-09 03:31 124 22.8
2019-Dec-09 03:16 124 22.8
2019-Dec-09 03:03 124 22.8